Погода в Барабановке

Россия / Оренбургская область     52°11′57″N   53°29′14″E
темп.,
°C
ветер,
м/с
пор.,
м/с
влажн.,
%
обл.,
%
осадки,
мм/ч
давл.,
гПа
погр.,
м
10 апреля, сб
сб1023:00+7юв61381100 0.0 1023234
02:00+6вюв41186100 0.0 1023184
05:00+5вюв41184100 0.0 1024185
08:00+6вюв51282100 0.0 1025216
11:00+11юв71569100 0.0 1025437
14:00+16юв91559100 0.0 1025704
17:00+18юв91553100 0.0 1025995
20:00+14юв91871100 0.0 1026486
11 апреля, вс
вс1123:00+10юв101980100 0.0 1028406
02:00+8юв9197893 0.0 1028364
05:00+7юв8177296 0.0 1030345
08:00+6юв816725 0.0 1031354
11:00+12ююв8115510 0.0 1031491
14:00+16ююв78445 0.0 1031738
17:00+17ююв78415 0.0 1031856
20:00+13юв486230 0.0 1031139
12 апреля, пн
пн1223:00+10юв410755 0.0 1032177
02:00+8вюв38895 0.0 1033152
05:00+6юв35875 0.0 103480
08:00+7вюв26726 0.0 1034146
11:00+13юв44465 0.0 1035411
14:00+16юв343568 0.0 1034808
17:00+18вюв442788 0.0 1033924
20:00+13вюв3343100 0.0 103330
13 апреля, вт
вт1323:00+10вюв224894 0.0 103414
02:00+8вюв335946 0.0 103428
05:00+6вюв337023 0.0 103525
08:00+6вюв386725 0.0 1035183
11:00+12юв573613 0.0 1035468
14:00+16юв56275 0.0 1033784
17:00+17юв45255 0.0 1032896
20:00+13вюв33425 0.0 103226
14 апреля, ср
ср1423:00+10вюв33485 0.0 103224
02:00+8юв33545 0.0 103217
05:00+6вюв22635 0.0 103210
08:00+7вюв23665 0.0 103149
11:00+13вюв34455 0.0 1030459
14:00+17вюв34310 0.0 1028959
17:00+19вюв33280 0.0 10261078
20:00+15в22440 0.0 102511